Time,TemperatureF,DewpointF,PressureIn,WindDirection,WindDirectionDegrees,WindSpeedMPH,WindSpeedGustMPH,Humidity,HourlyPrecipIn,Conditions,Clouds,dailyrainin,SolarRadiationWatts/m^2,SoftwareType,DateUTC
2013-01-10 00:03:00,65.0,61.0,30.12,SE,125,0.0,0.0,86,0.23,,,0.01,0,weatherlink.com 1.10,2013-01-10 06:03:00,
2013-01-10 00:18:00,64.8,61.0,30.10,SE,125,2.0,2.0,86,0.26,,,0.08,0,weatherlink.com 1.10,2013-01-10 06:18:00,
2013-01-10 00:33:00,64.9,61.0,30.09,SE,125,2.0,5.0,86,0.23,,,0.12,0,weatherlink.com 1.10,2013-01-10 06:33:00,
2013-01-10 00:48:00,65.1,61.0,30.09,SSE,156,2.0,5.0,86,0.20,,,0.16,0,weatherlink.com 1.10,2013-01-10 06:48:00,
2013-01-10 01:03:00,65.2,61.0,30.10,East,92,0.0,5.0,86,0.18,,,0.20,0,weatherlink.com 1.10,2013-01-10 07:03:00,
2013-01-10 01:18:00,65.2,61.0,30.09,East,91,0.0,4.0,86,0.17,,,0.25,0,weatherlink.com 1.10,2013-01-10 07:18:00,
2013-01-10 01:34:00,65.0,61.0,30.08,East,93,1.0,5.0,86,0.18,,,0.31,0,weatherlink.com 1.10,2013-01-10 07:34:00,
2013-01-10 01:48:00,65.1,61.0,30.08,ESE,111,1.0,6.0,86,0.17,,,0.33,0,weatherlink.com 1.10,2013-01-10 07:48:00,
2013-01-10 02:03:00,65.2,61.0,30.08,SE,139,0.0,2.0,86,0.20,,,0.40,0,weatherlink.com 1.10,2013-01-10 08:03:00,
2013-01-10 02:18:00,65.2,61.0,30.08,SE,139,0.0,6.0,86,0.18,,,0.44,0,weatherlink.com 1.10,2013-01-10 08:18:00,
2013-01-10 02:33:00,65.3,61.0,30.10,SE,144,0.0,6.0,86,0.17,,,0.48,0,weatherlink.com 1.10,2013-01-10 08:33:00,
2013-01-10 02:48:00,65.3,61.0,30.08,ESE,117,0.0,6.0,86,0.24,,,0.57,0,weatherlink.com 1.10,2013-01-10 08:48:00,
2013-01-10 03:04:00,65.2,61.0,30.08,ESE,108,0.0,4.0,86,0.23,,,0.63,0,weatherlink.com 1.10,2013-01-10 09:04:00,
2013-01-10 03:20:00,65.0,61.0,30.09,ESE,107,0.0,1.0,86,0.27,,,0.71,0,weatherlink.com 1.10,2013-01-10 09:20:00,
2013-01-10 03:33:00,65.0,61.0,30.09,East,100,1.0,7.0,86,0.31,,,0.79,0,weatherlink.com 1.10,2013-01-10 09:33:00,
2013-01-10 04:34:00,64.6,60.0,30.07,East,100,2.0,2.0,86,0.68,,,1.48,0,weatherlink.com 1.10,2013-01-10 10:34:00,
2013-01-10 04:49:00,64.2,60.0,30.07,East,100,0.0,3.0,86,0.66,,,1.57,0,weatherlink.com 1.10,2013-01-10 10:49:00,
2013-01-10 05:04:00,64.1,60.0,30.04,WSW,244,0.0,8.0,86,0.54,,,1.64,0,weatherlink.com 1.10,2013-01-10 11:04:00,
2013-01-10 05:20:00,64.0,60.0,30.04,North,4,0.0,1.0,86,0.40,,,1.69,0,weatherlink.com 1.10,2013-01-10 11:20:00,
2013-01-10 05:37:00,63.8,60.0,30.05,North,4,0.0,0.0,86,0.21,,,1.72,0,weatherlink.com 1.10,2013-01-10 11:37:00,
2013-01-10 05:49:00,63.7,60.0,30.04,North,4,0.0,0.0,86,0.19,,,1.76,0,weatherlink.com 1.10,2013-01-10 11:49:00,
2013-01-10 06:04:00,63.4,59.0,30.05,WSW,242,0.0,1.0,86,0.16,,,1.80,0,weatherlink.com 1.10,2013-01-10 12:04:00,
2013-01-10 06:19:00,63.5,59.0,30.05,ESE,109,0.0,1.0,86,0.13,,,1.82,0,weatherlink.com 1.10,2013-01-10 12:19:00,
2013-01-10 06:34:00,63.5,59.0,30.04,ESE,109,0.0,1.0,86,0.13,,,1.84,0,weatherlink.com 1.10,2013-01-10 12:34:00,
2013-01-10 06:50:00,63.4,59.0,30.04,ESE,109,0.0,1.0,86,0.10,,,1.86,0,weatherlink.com 1.10,2013-01-10 12:50:00,
2013-01-10 07:05:00,63.3,59.0,30.00,East,90,7.0,7.0,86,0.10,,,1.90,0,weatherlink.com 1.10,2013-01-10 13:05:00,
2013-01-10 07:20:00,63.2,59.0,30.00,East,90,0.0,5.0,86,0.10,,,1.92,0,weatherlink.com 1.10,2013-01-10 13:20:00,
2013-01-10 07:35:00,63.2,59.0,30.00,East,91,1.0,4.0,86,0.09,,,1.93,0,weatherlink.com 1.10,2013-01-10 13:35:00,
2013-01-10 07:50:00,63.0,59.0,29.98,East,80,2.0,13.0,86,0.08,,,1.94,0,weatherlink.com 1.10,2013-01-10 13:50:00,
2013-01-10 08:05:00,63.0,59.0,29.99,East,90,4.0,11.0,86,0.05,,,1.95,0,weatherlink.com 1.10,2013-01-10 14:05:00,
2013-01-10 08:20:00,62.8,59.0,29.98,East,87,2.0,11.0,86,0.04,,,1.96,9,weatherlink.com 1.10,2013-01-10 14:20:00,
2013-01-10 08:35:00,62.7,59.0,29.99,ENE,67,1.0,10.0,86,0.03,,,1.96,9,weatherlink.com 1.10,2013-01-10 14:35:00,
2013-01-10 08:53:00,62.6,58.0,29.98,East,96,5.0,11.0,86,0.03,,,1.97,11,weatherlink.com 1.10,2013-01-10 14:53:00,
2013-01-10 09:05:00,62.6,58.0,30.00,ESE,111,1.0,11.0,86,0.02,,,1.97,16,weatherlink.com 1.10,2013-01-10 15:05:00,
2013-01-10 09:20:00,62.6,58.0,30.01,East,84,3.0,9.0,86,0.02,,,1.98,23,weatherlink.com 1.10,2013-01-10 15:20:00,
2013-01-10 09:35:00,62.6,58.0,30.00,East,92,1.0,7.0,86,0.02,,,1.98,21,weatherlink.com 1.10,2013-01-10 15:35:00,
2013-01-10 09:50:00,62.6,58.0,30.01,WNW,300,5.0,6.0,86,0.01,,,1.98,25,weatherlink.com 1.10,2013-01-10 15:50:00,
2013-01-10 10:05:00,62.7,59.0,30.02,ENE,75,1.0,5.0,86,0.01,,,1.98,25,weatherlink.com 1.10,2013-01-10 16:05:00,
2013-01-10 10:20:00,62.9,59.0,30.02,ENE,75,0.0,2.0,86,0.00,,,1.98,44,weatherlink.com 1.10,2013-01-10 16:20:00,
2013-01-10 10:35:00,63.1,59.0,30.04,ENE,75,0.0,4.0,86,0.00,,,1.98,25,weatherlink.com 1.10,2013-01-10 16:35:00,
2013-01-10 10:50:00,63.0,59.0,30.04,ENE,76,0.0,1.0,86,0.00,,,1.98,40,weatherlink.com 1.10,2013-01-10 16:50:00,
2013-01-10 11:05:00,63.2,59.0,30.04,ENE,75,0.0,1.0,86,0.00,,,1.98,39,weatherlink.com 1.10,2013-01-10 17:05:00,
2013-01-10 11:20:00,63.3,59.0,30.04,ENE,75,0.0,1.0,86,0.00,,,1.98,46,weatherlink.com 1.10,2013-01-10 17:20:00,
2013-01-10 11:35:00,63.5,59.0,30.05,ENE,75,1.0,2.0,86,0.00,,,1.98,37,weatherlink.com 1.10,2013-01-10 17:35:00,
2013-01-10 11:50:00,63.5,59.0,30.04,South,176,0.0,2.0,86,0.00,,,1.98,47,weatherlink.com 1.10,2013-01-10 17:50:00,
2013-01-10 12:05:00,63.4,59.0,30.02,South,179,0.0,5.0,86,0.00,,,1.98,42,weatherlink.com 1.10,2013-01-10 18:05:00,
2013-01-10 12:20:00,63.5,59.0,30.01,South,177,0.0,4.0,86,0.00,,,1.98,56,weatherlink.com 1.10,2013-01-10 18:20:00,
2013-01-10 12:35:00,63.4,59.0,30.00,South,178,1.0,2.0,86,0.00,,,1.98,47,weatherlink.com 1.10,2013-01-10 18:35:00,
2013-01-10 12:50:00,63.4,59.0,30.00,South,178,1.0,2.0,86,0.00,,,1.98,35,weatherlink.com 1.10,2013-01-10 18:50:00,
2013-01-10 13:05:00,63.5,59.0,29.99,SE,137,0.0,5.0,86,0.00,,,1.98,84,weatherlink.com 1.10,2013-01-10 19:05:00,
2013-01-10 13:20:00,63.9,60.0,29.98,SE,138,1.0,2.0,86,0.00,,,1.98,98,weatherlink.com 1.10,2013-01-10 19:20:00,
2013-01-10 13:35:00,63.9,60.0,29.98,South,173,2.0,7.0,86,0.00,,,1.98,53,weatherlink.com 1.10,2013-01-10 19:35:00,
2013-01-10 13:50:00,64.0,60.0,29.98,South,182,2.0,7.0,86,0.00,,,1.98,72,weatherlink.com 1.10,2013-01-10 19:50:00,
2013-01-10 14:05:00,64.2,60.0,29.98,SW,236,3.0,5.0,86,0.00,,,1.98,86,weatherlink.com 1.10,2013-01-10 20:05:00,
2013-01-10 14:20:00,64.2,60.0,29.98,SW,226,2.0,10.0,86,0.00,,,1.98,72,weatherlink.com 1.10,2013-01-10 20:20:00,
2013-01-10 14:35:00,64.2,60.0,29.98,South,171,4.0,10.0,86,0.00,,,1.98,49,weatherlink.com 1.10,2013-01-10 20:35:00,
2013-01-10 14:50:00,64.1,60.0,29.98,South,183,5.0,11.0,85,0.00,,,1.98,77,weatherlink.com 1.10,2013-01-10 20:50:00,
2013-01-10 15:05:00,64.3,60.0,29.98,South,191,1.0,11.0,85,0.00,,,1.98,88,weatherlink.com 1.10,2013-01-10 21:05:00,
2013-01-10 15:20:00,64.3,60.0,29.98,SSE,166,0.0,11.0,85,0.00,,,1.98,44,weatherlink.com 1.10,2013-01-10 21:20:00,
2013-01-10 15:35:00,64.2,60.0,29.97,SW,228,6.0,9.0,85,0.00,,,1.98,141,weatherlink.com 1.10,2013-01-10 21:35:00,
2013-01-10 15:50:00,64.5,60.0,29.98,SSE,162,3.0,13.0,85,0.00,,,1.98,86,weatherlink.com 1.10,2013-01-10 21:50:00,
2013-01-10 16:05:00,64.4,60.0,29.97,SSE,153,4.0,12.0,85,0.00,,,1.98,91,weatherlink.com 1.10,2013-01-10 22:05:00,
2013-01-10 16:20:00,64.7,60.0,29.97,SSE,167,1.0,12.0,85,0.00,,,1.98,53,weatherlink.com 1.10,2013-01-10 22:20:00,
2013-01-10 16:35:00,64.7,60.0,29.97,South,176,0.0,6.0,84,0.00,,,1.98,33,weatherlink.com 1.10,2013-01-10 22:35:00,
2013-01-10 17:05:00,64.6,60.0,29.96,South,173,4.0,9.0,84,0.00,,,1.98,19,weatherlink.com 1.10,2013-01-10 23:05:00,
2013-01-10 17:20:00,64.6,59.0,29.96,South,189,0.0,9.0,83,0.00,,,1.98,7,weatherlink.com 1.10,2013-01-10 23:20:00,
2013-01-10 17:35:00,64.3,59.0,29.96,SW,216,1.0,12.0,83,0.00,,,1.98,7,weatherlink.com 1.10,2013-01-10 23:35:00,
2013-01-10 17:50:00,64.0,58.0,29.96,SSW,198,1.0,11.0,82,0.00,,,1.98,0,weatherlink.com 1.10,2013-01-10 23:50:00,
2013-01-10 18:05:00,63.6,58.0,29.97,SSW,194,1.0,7.0,82,0.00,,,1.98,0,weatherlink.com 1.10,2013-01-11 00:05:00,
2013-01-10 18:20:00,63.4,58.0,29.97,WSW,252,6.0,6.0,82,0.00,,,1.98,0,weatherlink.com 1.10,2013-01-11 00:20:00,
2013-01-10 18:35:00,63.1,58.0,29.97,SW,219,2.0,8.0,82,0.00,,,1.98,0,weatherlink.com 1.10,2013-01-11 00:35:00,
2013-01-10 18:50:00,63.0,57.0,29.97,SW,225,5.0,10.0,82,0.00,,,1.98,0,weatherlink.com 1.10,2013-01-11 00:50:00,
2013-01-10 19:05:00,62.8,57.0,29.97,SW,231,1.0,9.0,82,0.00,,,1.98,0,weatherlink.com 1.10,2013-01-11 01:05:00,
2013-01-10 19:20:00,62.6,57.0,29.98,SSW,192,0.0,8.0,82,0.00,,,1.98,0,weatherlink.com 1.10,2013-01-11 01:20:00,
2013-01-10 19:38:00,62.6,57.0,29.99,South,190,1.0,10.0,82,0.00,,,1.98,0,weatherlink.com 1.10,2013-01-11 01:38:00,
2013-01-10 19:50:00,62.6,57.0,29.99,SW,218,6.0,7.0,82,0.00,,,1.98,0,weatherlink.com 1.10,2013-01-11 01:50:00,
2013-01-10 20:05:00,62.6,57.0,29.99,WSW,252,0.0,5.0,83,0.00,,,1.98,0,weatherlink.com 1.10,2013-01-11 02:05:00,
2013-01-10 20:20:00,62.5,57.0,30.00,North,4,4.0,5.0,83,0.00,,,1.98,0,weatherlink.com 1.10,2013-01-11 02:20:00,
2013-01-10 20:35:00,62.5,57.0,30.00,SW,224,1.0,6.0,83,0.00,,,1.98,0,weatherlink.com 1.10,2013-01-11 02:35:00,
2013-01-10 20:50:00,62.4,57.0,30.01,WSW,256,0.0,2.0,83,0.00,,,1.98,0,weatherlink.com 1.10,2013-01-11 02:50:00,
2013-01-10 21:05:00,62.3,57.0,30.01,SW,236,1.0,2.0,83,0.00,,,1.98,0,weatherlink.com 1.10,2013-01-11 03:05:00,
2013-01-10 21:20:00,62.1,57.0,30.02,SW,236,0.0,1.0,83,0.00,,,1.98,0,weatherlink.com 1.10,2013-01-11 03:20:00,
2013-01-10 21:35:00,62.0,57.0,30.02,SW,236,0.0,1.0,83,0.00,,,1.98,0,weatherlink.com 1.10,2013-01-11 03:35:00,
2013-01-10 21:50:00,61.9,57.0,30.01,North,4,0.0,0.0,83,0.00,,,1.98,0,weatherlink.com 1.10,2013-01-11 03:50:00,
2013-01-10 22:05:00,61.9,57.0,30.02,SSW,200,0.0,1.0,83,0.00,,,1.98,0,weatherlink.com 1.10,2013-01-11 04:05:00,
2013-01-10 22:20:00,61.8,57.0,30.02,SSW,198,1.0,3.0,83,0.00,,,1.98,0,weatherlink.com 1.10,2013-01-11 04:20:00,
2013-01-10 22:36:00,61.7,57.0,30.02,North,4,1.0,4.0,83,0.00,,,1.98,0,weatherlink.com 1.10,2013-01-11 04:36:00,
2013-01-10 22:51:00,61.4,56.0,30.02,SW,221,1.0,5.0,83,0.00,,,1.98,0,weatherlink.com 1.10,2013-01-11 04:51:00,
2013-01-10 23:06:00,60.8,56.0,30.02,SW,221,0.0,4.0,83,0.00,,,1.98,0,weatherlink.com 1.10,2013-01-11 05:06:00,
2013-01-10 23:21:00,60.1,55.0,30.02,SW,222,0.0,1.0,83,0.00,,,1.98,0,weatherlink.com 1.10,2013-01-11 05:21:00,
2013-01-10 23:36:00,59.3,54.0,30.03,SW,219,0.0,1.0,83,0.00,,,1.98,0,weatherlink.com 1.10,2013-01-11 05:36:00,
2013-01-10 23:51:00,58.5,53.0,30.02,SW,221,0.0,2.0,83,0.00,,,1.98,0,weatherlink.com 1.10,2013-01-11 05:51:00,